Location: Eferding
(48.3167°N, 14.0167°E)
Time: 13:38:43
(UTC+00:00)

Cosmos 1943 Rocket - Pass Details

Date: 12 November 2019
Orbit: 810 x 845 km, 71.0° (Epoch: 05 December)

Event Time Altitude Azimuth Distance (km) Brightness Sun altitude
Rises 16:22:05 0° 245° (WSW) 3,375 7.5 -9.0°
Reaches altitude 10° 16:24:54 10° 258° (WSW) 2,451 6.3 -9.4°
Maximum altitude 16:29:35 26° 315° (NW) 1,594 4.0 -10.2°
Drops below altitude 10° 16:34:19 10° 11° (N) 2,475 4.4 -10.9°
Sets 16:37:11 0° 24° (NNE) 3,416 5.0 -11.4°
Enters shadow 16:37:23 -1° 25° (NNE) 3,481 5.0 -11.4°
